TELEOS 1

Last updated on Tue Nov 21 2023 00:02:24 GMT+0000 (Coordinated Universal Time)

1 41169U 15077D 23324.58347977 .00011764 00000+0 45393-3 0 9990 2 41169 14.9813 299.9935 0007599 153.2884 206.7830 15.22889799438771

Satellite not in orbit

TELEOS 1